Weather History for 94592 - February, 2014

Change the Weather History Date:

Tuesday, February 4, 2014

  Actual Average Record
Temperature  
Mean Temperature 74 °F -  
Max Temperature 82 °F - - ()
Min Temperature 67 °F - - ()
Cooling Degree Days 10    
Growing Degree Days 24 (Base 50)    
Moisture  
Dew Point 65 °F    
Average Humidity 72    
Maximum Humidity 94    
Minimum Humidity 46    
Precipitation  
Precipitation 0.00 in - - ()
Sea Level Pressure  
Sea Level Pressure 29.93 in    
Wind  
Wind Speed 7 mph ()    
Max Wind Speed 18 mph    
Max Gust Speed -    
Visibility 6.1 miles    
Events      
T = Trace of Precipitation, MM = Missing Value Source: Averaged Metar Reports

Daily Weather History Graph

Daily Weather History Graph

Search for Another Location

Airport or City:

Trip Planner

Search our weather history database for the weather conditions in past years. The results will help you decide how hot, cold, wet, or windy it might be!

Date:

Astronomy

Feb. 04, 2014 Rise Set
Actual Time 5:19 AM AEST 6:39 PM AEST
Civil Twilight 4:54 AM AEST 7:04 PM AEST
Nautical Twilight 4:24 AM AEST 7:34 PM AEST
Astronomical Twilight 3:53 AM AEST 8:05 PM AEST
Moon 9:40 AM AEST (2/4) 9:32 PM AEST (2/4)
Length of Visible Light 14h 10m
Length of Day
13h 20m
Waxing Crescent, 23% of the Moon is Illuminated
Feb 4
Waxing Crescent
Feb 7
First Quarter
Feb 15
Full
Feb 23
Last Quarter
Mar 1
New

Hourly Weather History & Observations

Time (AEST) Temp. Heat Index Dew Point Humidity Pressure Visibility Wind Dir Wind Speed Gust Speed Precip Events Conditions
12:00 AM 69 °F - 64 °F 79% 29.92 in - SSW 3.5 mph - -   Overcast
12:00 AM 69.8 °F - 64.4 °F 83% 29.92 in 6.2 mi SSW 3.5 mph - N/A   Mostly Cloudy
12:30 AM 68.0 °F - 64.4 °F 88% 29.92 in 6.2 mi WSW 3.5 mph - N/A   Scattered Clouds
1:00 AM 69.8 °F - 66.2 °F 88% 29.89 in 6.2 mi South 4.6 mph - N/A   Mostly Cloudy
1:30 AM 69.8 °F - 64.4 °F 83% 29.89 in 6.2 mi South 4.6 mph - N/A   Overcast
2:00 AM 69.8 °F - 66.2 °F 88% 29.89 in 6.2 mi SSW 4.6 mph - N/A   Overcast
2:30 AM 68.0 °F - 64.4 °F 88% 29.89 in 6.2 mi SW 1.2 mph - N/A   Scattered Clouds
3:00 AM 67 °F - 64 °F 89% 29.89 in - SW 2.3 mph - -   Overcast
3:00 AM 68.0 °F - 64.4 °F 88% 29.89 in 6.2 mi SW 2.3 mph - N/A   Mostly Cloudy
3:30 AM 68.0 °F - 64.4 °F 88% 29.89 in 6.2 mi South 3.5 mph - N/A   Mostly Cloudy
4:00 AM 68.0 °F - 64.4 °F 88% 29.89 in 6.2 mi South 6.9 mph - N/A   Overcast
4:07 AM 68.0 °F - 64.4 °F 88% 29.89 in 6.2 mi South 6.9 mph - N/A   Overcast
4:30 AM 68.0 °F - 66.2 °F 94% 29.89 in 6.2 mi South 3.5 mph - N/A   Overcast
4:58 AM 68.0 °F - 66.2 °F 94% 29.89 in 3.7 mi South 6.9 mph - N/A   Overcast
5:00 AM 68.0 °F - 66.2 °F 94% 29.89 in 3.7 mi South 8.1 mph - N/A   Overcast
5:13 AM 68.0 °F - 66.2 °F 94% 29.89 in 4.3 mi South 9.2 mph - N/A   Overcast
5:30 AM 68.0 °F - 66.2 °F 94% 29.89 in 6.2 mi South 5.8 mph - N/A   Overcast
6:00 AM 69 °F - 66 °F 89% 29.91 in - SSW 2.3 mph - -  
6:00 AM 68.0 °F - 66.2 °F 94% 29.92 in 6.2 mi SSW 2.3 mph - N/A   Mostly Cloudy
6:30 AM 69.8 °F - 66.2 °F 88% 29.92 in 6.2 mi SSW 4.6 mph - N/A   Scattered Clouds
7:00 AM 71.6 °F - 68.0 °F 88% 29.92 in 6.2 mi SSW 1.2 mph - N/A   Scattered Clouds
7:30 AM 73.4 °F - 66.2 °F 78% 29.92 in 6.2 mi South 8.1 mph - N/A   Unknown
8:00 AM 75.2 °F - 66.2 °F 73% 29.95 in 6.2 mi South 5.8 mph - N/A   Mostly Cloudy
8:30 AM 77.0 °F - 66.2 °F 69% 29.95 in 6.2 mi SSE 6.9 mph - N/A   Scattered Clouds
9:00 AM 78 °F - 65 °F 56% 29.95 in - SSE 10.4 mph - -  
9:00 AM 77.0 °F - 66.2 °F 69% 29.95 in 6.2 mi SSE 10.4 mph - N/A   Scattered Clouds
9:30 AM 78.8 °F - 64.4 °F 61% 29.95 in 6.2 mi East 10.4 mph - N/A   Scattered Clouds
10:00 AM 80.6 °F 82.7 °F 66.2 °F 61% 29.95 in 6.2 mi East 11.5 mph - N/A   Scattered Clouds
10:30 AM 80.6 °F 82.7 °F 66.2 °F 61% 29.95 in 6.2 mi East 11.5 mph - N/A   Scattered Clouds
11:00 AM 82.4 °F 83.9 °F 64.4 °F 54% 29.95 in 6.2 mi ESE 12.7 mph - N/A   Scattered Clouds
11:30 AM 80.6 °F 82.3 °F 64.4 °F 58% 29.95 in 6.2 mi East 13.8 mph - N/A   Unknown
12:00 PM 82 °F - 65 °F 46% 29.94 in - East 16.1 mph - -  
12:00 PM 82.4 °F 83.9 °F 64.4 °F 54% 29.92 in 6.2 mi East 16.1 mph - N/A   Scattered Clouds
12:30 PM 82.4 °F 84.6 °F 66.2 °F 58% 29.92 in 6.2 mi ESE 15.0 mph - N/A   Unknown
1:00 PM 82.4 °F 83.9 °F 64.4 °F 54% 29.92 in 6.2 mi ESE 15.0 mph - N/A   Unknown
1:30 PM 80.6 °F 82.3 °F 64.4 °F 58% 29.92 in 6.2 mi ESE 15.0 mph - N/A   Scattered Clouds
2:00 PM 80.6 °F 82.3 °F 64.4 °F 58% 29.92 in 6.2 mi ESE 16.1 mph - N/A   Scattered Clouds
2:30 PM 80.6 °F 82.3 °F 64.4 °F 58% 29.92 in 6.2 mi ESE 16.1 mph - N/A   Unknown
3:00 PM 79 °F - 65 °F 54% 29.92 in - SE 16.1 mph - -  
3:00 PM 78.8 °F - 64.4 °F 61% 29.92 in 6.2 mi SE 16.1 mph - N/A   Scattered Clouds
3:30 PM 80.6 °F 82.7 °F 66.2 °F 61% 29.92 in 6.2 mi SE 17.3 mph - N/A   Scattered Clouds
4:00 PM 77.0 °F - 64.4 °F 65% 29.92 in 6.2 mi SE 18.4 mph - N/A   Scattered Clouds
4:30 PM 78.8 °F - 64.4 °F 61% 29.92 in 6.2 mi ESE 15.0 mph - N/A   Unknown
5:00 PM 77.0 °F - 64.4 °F 65% 29.92 in 6.2 mi ESE 16.1 mph - N/A   Scattered Clouds
5:30 PM 77.0 °F - 64.4 °F 65% 29.92 in 6.2 mi SE 15.0 mph - N/A   Unknown
6:00 PM 77 °F - 62 °F 50% 29.96 in - SE 16.1 mph - -  
6:00 PM 77.0 °F - 62.6 °F 61% 29.95 in 6.2 mi SE 16.1 mph - N/A   Unknown
6:30 PM 75.2 °F - 62.6 °F 65% 29.95 in 6.2 mi SE 11.5 mph - N/A   Unknown
7:00 PM 75.2 °F - 62.6 °F 65% 29.98 in 6.2 mi SE 12.7 mph - N/A   Scattered Clouds
7:30 PM 75.2 °F - 62.6 °F 65% 29.98 in 6.2 mi SE 10.4 mph - N/A   Unknown
8:00 PM 75.2 °F - 62.6 °F 65% 29.98 in 6.2 mi SE 10.4 mph - N/A   Scattered Clouds
8:30 PM 75.2 °F - 62.6 °F 65% 29.98 in 6.2 mi SSE 9.2 mph - N/A   Scattered Clouds
9:00 PM 74 °F - 62 °F 59% 30.00 in - SSE 10.4 mph - -  
9:00 PM 75.2 °F - 62.6 °F 65% 29.98 in 6.2 mi SSE 10.4 mph - N/A   Unknown
9:30 PM 75.2 °F - 62.6 °F 65% 29.98 in 6.2 mi SSE 9.2 mph - N/A   Mostly Cloudy
10:00 PM 73.4 °F - 66.2 °F 78% 29.98 in 6.2 mi SSE 11.5 mph - N/A   Overcast
10:30 PM 73.4 °F - 64.4 °F 73% 29.98 in 6.2 mi SSE 12.7 mph - N/A   Scattered Clouds
11:00 PM 73.4 °F - 62.6 °F 69% 29.98 in 6.2 mi SSE 11.5 mph - N/A   Scattered Clouds
11:30 PM 71.6 °F - 62.6 °F 73% 29.98 in 6.2 mi South 8.1 mph - N/A   Scattered Clouds